Location: Natural Bridges National Monument
(37.6093°N, 109.9767°W)
Time: 19:34:34
(UTC-06:00)

Cosmos 1727 Rocket - Visible Passes

Search period start: 29 August 2015 00:00
Search period end: 08 September 2015 00:00
Orbit: 961 x 996 km, 82.9° (Epoch: 29 August)

Date Brightness Start Highest point End Pass type
(mag) Time Alt. Az. Time Alt. Az. Time Alt. Az.
29 Aug 6.5 01:00:12 12° NE 01:00:12 12° NE 01:00:47 10° NE visible
29 Aug 5.5 02:44:56 30° N 02:44:56 30° N 02:48:02 10° N visible
30 Aug 6.1 01:26:34 19° NE 01:26:34 19° NE 01:28:27 10° NNE visible
30 Aug 5.7 03:11:18 23° NNW 03:11:18 23° NNW 03:14:00 10° NNW visible
31 Aug 5.9 01:52:55 25° NNE 01:52:55 25° NNE 01:55:21 10° NNE visible
31 Aug 6.1 03:37:40 15° NW 03:37:40 15° NW 03:39:18 10° NNW visible
01 Sep 5.8 02:19:16 25° N 02:19:16 25° N 02:21:47 10° N visible
02 Sep 6.4 01:00:52 15° NE 01:00:52 15° NE 01:02:02 10° NNE visible
02 Sep 5.9 02:45:37 21° NNW 02:45:37 21° NNW 02:47:49 10° N visible
03 Sep 6.1 01:27:12 20° NNE 01:27:12 20° NNE 01:29:01 10° NNE visible
03 Sep 6.2 03:11:56 14° NW 03:11:56 14° NW 03:13:17 10° NNW visible
04 Sep 6.1 01:53:32 22° N 01:53:32 22° N 01:55:31 10° N visible
05 Sep 6.5 00:35:06 12° NE 00:35:06 12° NE 00:35:35 10° NNE visible
05 Sep 6.1 02:19:50 19° NNW 02:19:50 19° NNW 02:21:38 10° N visible
06 Sep 6.3 01:01:25 16° NNE 01:01:25 16° NNE 01:02:40 10° NNE visible
06 Sep 6.3 02:46:09 14° NNW 02:46:09 14° NNW 02:47:13 10° NNW visible
07 Sep 6.3 01:27:42 18° N 01:27:42 18° N 01:29:15 10° N visible
